Location: Breungeshain
(50.5000°N, 9.2000°E)
Time: 14:25:39
(UTC+00:00)

ISS - Visible Passes

Search period start: 25 September 2022 00:00
Search period end: 05 October 2022 00:00
Orbit: 414 x 417 km, 51.6° (Epoch: 25 September)

Date Brightness Start Highest point End Pass type
(mag) Time Alt. Az. Time Alt. Az. Time Alt. Az.
25 Sep -3.7 18:33:15 10° W 18:36:37 71° N 18:38:20 26° E visible
25 Sep -1.2 20:10:03 10° WNW 20:11:13 20° W 20:11:13 20° W visible
26 Sep -3.6 17:44:34 10° W 17:47:56 70° N 17:51:18 10° E visible
26 Sep -3.5 19:21:22 10° WNW 19:24:22 65° WSW 19:24:22 65° WSW visible
27 Sep -3.8 18:32:42 10° WNW 18:36:04 88° N 18:37:32 31° ESE visible
27 Sep -0.9 20:09:35 10° W 20:10:25 15° W 20:10:25 15° W visible
28 Sep -3.7 17:44:00 10° WNW 17:47:22 76° N 17:50:42 10° E visible
28 Sep -2.7 19:20:48 10° W 19:23:35 40° SW 19:23:35 40° SW visible
29 Sep -3.5 18:32:03 10° WNW 18:35:22 59° SSW 18:36:46 30° SE visible
29 Sep -0.5 20:09:34 10° WSW 20:09:39 10° WSW 20:09:39 10° WSW visible
30 Sep -3.7 17:43:19 10° WNW 17:46:41 78° SSW 17:50:00 10° ESE visible
30 Sep -1.8 19:20:24 10° W 19:22:53 22° SW 19:22:53 22° SW visible
01 Oct -2.4 18:31:27 10° W 18:34:29 32° SSW 18:36:10 20° SSE visible
02 Oct -2.9 17:42:36 10° W 17:45:50 45° SSW 17:49:03 10° SE visible
02 Oct -0.9 19:21:09 10° WSW 19:21:54 11° SW 19:22:24 10° SW visible
03 Oct -1.2 18:31:11 10° W 18:33:22 16° SW 18:35:32 10° S visible
04 Oct -1.6 17:42:00 10° W 17:44:46 24° SW 17:47:31 10° SSE visible
